This is the latest recevied weather packets stored in our database for station/object OH7GGX-14. If no packets are shown the sender has not sent any weather packets the latest 10 day(s).
| Time | Temp. | Humidity | Pressure | Rain* | Wind** | Luminosity | Snow |
|---|---|---|---|---|---|---|---|
| 1778039491 | 0° C | 99% | 1007.8 hPa | 0 mm | - | - | - |
| 1778038891 | -0.56° C | 99% | 1007.6 hPa | 0 mm | - | - | - |
| 1778038291 | -0.56° C | 99% | 1007.5 hPa | 0 mm | - | - | - |
| 1778037691 | -1.11° C | 99% | 1007.6 hPa | 0 mm | - | - | - |
| 1778037091 | -1.11° C | 99% | 1007.4 hPa | 0 mm | - | - | - |
| 1778036491 | -1.67° C | 99% | 1007.5 hPa | 0 mm | - | - | - |
| 1778035891 | -1.67° C | 99% | 1007.3 hPa | 0 mm | - | - | - |
| 1778035293 | -2.22° C | 99% | 1007.2 hPa | 0 mm | - | - | - |
| 1778034691 | -2.22° C | 99% | 1007.1 hPa | 0 mm | - | - | - |
| 1778034091 | -2.22° C | 99% | 1007 hPa | 0 mm | - | - | - |
| 1778033491 | -2.22° C | 99% | 1006.9 hPa | 0 mm | - | - | - |
| 1778032891 | -2.22° C | 99% | 1006.9 hPa | 0 mm | - | - | - |
| 1778032291 | -2.22° C | 99% | 1006.8 hPa | 0 mm | - | - | - |
| 1778031692 | -2.22° C | 99% | 1006.9 hPa | 0 mm | - | - | - |
| 1778031092 | -2.22° C | 99% | 1006.8 hPa | 0 mm | - | - | - |
| 1778030492 | -2.22° C | 99% | 1006.6 hPa | 0 mm | - | - | - |
| 1778029892 | -1.67° C | 99% | 1006.6 hPa | 0 mm | - | - | - |
| 1778029292 | -1.67° C | 99% | 1006.5 hPa | 0 mm | - | - | - |
| 1778028692 | -1.67° C | 99% | 1006.3 hPa | 0 mm | - | - | - |
| 1778028092 | -1.67° C | 99% | 1006.2 hPa | 0 mm | - | - | - |
| 1778027492 | -1.67° C | 99% | 1006.1 hPa | 0 mm | - | - | - |
| 1778026892 | -1.67° C | 99% | 1006 hPa | 0 mm | - | - | - |
| 1778026292 | -1.11° C | 99% | 1006 hPa | 0 mm | - | - | - |
| 1778025692 | -1.11° C | 99% | 1005.8 hPa | 0 mm | - | - | - |
| 1778025092 | -1.11° C | 99% | 1005.8 hPa | 0 mm | - | - | - |
* Rain latest hour (hover to see other rain measurements)
** Current wind speed in m/s (hover to see current wind gust speed)